CAPE
418 370 393 380 459 422 406 416 257 141 406 422 530 592 605 639 732 659 553 506 565 683 563 611 514 364 339 260 446 432 366 171 189 188 185 222 250 160 368 152 35 0 0
544 660 643 705 637 551 476 563 581 516 585 358 197 145 247 390 540 525 454 447 537 684 824 620 599 565 462 442 393 407 416 315 144 66 148 264 176 150 64 26 18 1 0
82 121 363 654 647 687 575 560 497 455 408 597 416 231 84 24 143 386 451 332 353 587 690 507 403 381 314 305 404 349 407 401 313 180 109 152 258 142 90 24 9 3 2
92 122 142 252 331 538 636 591 387 527 498 240 396 293 100 78 7 29 147 141 344 514 764 757 708 499 457 262 162 366 451 467 472 396 277 272 233 261 197 77 17 2 2
17 25 46 105 171 202 176 197 316 435 564 579 389 302 247 114 58 0 0 108 514 567 716 755 816 758 530 419 269 401 371 458 478 466 396 311 235 239 272 154 82 0 1
149 138 1 0 15 0 14 0 33 129 291 464 456 349 278 139 102 60 35 66 353 660 608 637 702 713 678 483 443 483 456 417 373 469 426 331 273 160 107 107 44 3 1
256 254 251 194 109 1 0 1 14 21 8 68 332 444 445 289 225 220 99 200 306 435 484 472 524 672 794 833 691 492 346 360 341 461 417 416 277 147 59 54 32 0 0
387 350 267 221 140 0 0 4 24 23 17 4 12 3 0 12 60 97 277 298 387 521 624 609 706 747 746 783 747 694 481 393 234 363 454 384 257 138 84 57 44 0 0
280 248 146 69 61 0 0 0 0 5 0 0 10 0 0 28 48 177 188 284 335 402 473 588 725 724 708 517 667 591 449 320 0 0 1 12 4 5 4 0 2 0 1
164 28 54 67 82 77 10 0 0 0 0 0 7 33 78 173 273 285 220 245 362 492 559 551 503 665 663 451 721 668 579 338 11 0 0 0 0 0 0 0 0 21 0
193 106 117 125 55 3 0 0 17 33 38 50 104 79 122 152 434 314 212 288 416 497 581 528 551 424 418 345 332 649 520 206 0 0 0 0 0 0 0 0 0 0 0
431 288 203 50 10 12 14 47 173 239 230 194 145 157 252 339 237 106 83 66 103 193 322 434 401 365 225 66 10 160 15 1 0 0 0 0 0 0 0 0 0 0 0
165 187 104 3 2 35 26 83 39 5 11 43 103 154 138 45 19 4 2 0 0 0 2 39 53 70 47 0 0 2 0 2 0 1 4 4 1 0 1 2 1 0 0
204 105 0 0 3 2 0 0 0 2 2 0 0 1 0 1 2 1 8 0 0 0 0 0 0 0 0 2 0 3 1 1 1 3 4 4 4 4 4 2 0 0 0
84 0 0 0 0 0 0 0 0 0 0 0 0 0 0 0 0 0 0 0 0 0 0 0 0 0 0 0 2 2 2 3 4 5 3 4 4 4 2 0 0 0 0
0 0 0 0 0 0 0 0 1 0 0 0 0 0 0 0 0 0 0 0 0 0 0 0 0 1 3 3 2 3 2 3 3 3 3 3 1 0 0 0 0 0 0
0 0 0 0 0 0 0 0 0 0 0 0 0 0 0 0 0 0 0 0 0 1 2 2 2 1 1 1 0 1 3 0 0 0 0 0 0 0 0 0 0 0 0
0 0 0 0 0 1 2 0 0 0 0 0 0 0 0 0 0 0 0 0 1 1 0 0 0 1 2 3 3 3 3 2 1 0 0 0 0 0 0 0 0 0 0
0 0 0 0 0 0 0 0 0 0 0 0 0 0 0 0 0 0 0 1 1 1 2 2 2 2 3 3 2 1 0 0 0 0 0 0 0 0 0 0 0 0 0
0 0 2 0 0 0 0 0 0 1 0 0 1 2 1 1 1 0 1 1 2 2 2 1 1 1 0 0 0 0 0 0 0 0 0 0 0 0 0 0 0 0 0
0 0 0 0 3 0 0 0 1 1 1 2 1 0 0 0 1 1 1 2 2 0 0 0 0 0 0 0 0 0 0 0 0 0 0 0 0 0 0 0 0 0 0
0 0 0 0 0 0 1 1 1 1 2 1 0 0 0 0 1 1 1 0 0 0 0 0 0 0 0 0 0 0 0 0 0 0 0 0 0 0 0 0 0 0 0
0 0 0 0 0 0 2 2 2 0 0 0 0 0 0 0 0 0 0 0 0 0 0 0 0 0 0 0 0 0 0 0 0 0 0 0 0 0 0 0 0 0 0
0 0 1 0 1 0 1 2 0 0 0 0 0 0 0 0 0 0 0 0 0 0 0 0 0 0 0 0 0 0 0 0 0 0 0 0 0 0 0 0 0 0 0
0 2 1 5 1 0 1 2 0 0 0 0 0 0 0 0 0 0 0 0 0 0 0 0 0 0 0 0 0 0 0 0 0 0 0 0 0 0 0 0 0 0 0
0 1 7 29 6 2 2 1 0 0 0 0 0 0 0 0 0 0 0 0 0 0 0 0 0 0 0 0 0 0 0 0 0 0 0 0 0 0 0 0 0 0 0
CIN
-111 -109 -94 -81 -72 -73 -64 -51 -85 -89 -68 -61 -53 -46 -51 -44 -49 -51 -56 -57 -53 -52 -63 -46 -37 -50 -40 -51 -52 -49 -46 -64 -25 -43 -86 -128 -121 -137 -114 -132 -172 -0 -0
-119 -102 -100 -100 -76 -65 -64 -45 -57 -58 -53 -61 -63 -60 -63 -64 -75 -63 -52 -47 -41 -36 -28 -36 -30 -40 -36 -43 -39 -33 -35 -44 -47 -55 -75 -74 -104 -151 -173 -193 -185 -0 -0
-184 -160 -132 -107 -106 -88 -84 -67 -56 -68 -51 -44 -63 -67 -73 -86 -88 -75 -63 -56 -52 -37 -29 -51 -51 -48 -51 -54 -36 -36 -37 -43 -51 -60 -73 -105 -103 -151 -154 -168 -130 -0 -0
-194 -163 -154 -148 -151 -106 -87 -75 -81 -68 -56 -69 -51 -60 -76 -102 -57 -110 -85 -79 -49 -39 -34 -35 -35 -42 -44 -47 -53 -37 -40 -29 -37 -32 -39 -54 -78 -96 -97 -114 -56 -0 -0
-139 -161 -146 -164 -167 -138 -100 -88 -75 -62 -54 -50 -60 -68 -72 -91 -91 -0 -0 -76 -47 -38 -32 -33 -32 -33 -42 -47 -48 -33 -43 -34 -34 -26 -30 -51 -69 -76 -64 -91 -88 -0 -0
-172 -120 -2 -0 -158 -0 -158 -0 -128 -84 -72 -65 -57 -63 -56 -79 -94 -106 -101 -76 -50 -32 -26 -29 -34 -35 -35 -45 -51 -53 -49 -30 -33 -33 -29 -35 -45 -59 -89 -89 -117 -0 -0
-162 -155 -140 -134 -130 -56 -0 -133 -154 -151 -141 -100 -68 -61 -65 -81 -76 -79 -99 -59 -43 -40 -39 -41 -36 -37 -32 -29 -36 -50 -65 -66 -63 -35 -33 -39 -48 -65 -88 -101 -114 -0 -0
-166 -154 -153 -151 -132 -0 -0 -72 -120 -118 -134 -152 -156 -28 -0 -62 -48 -92 -90 -88 -56 -38 -31 -31 -30 -37 -36 -32 -29 -35 -50 -69 -95 -74 -59 -52 -66 -78 -81 -78 -73 -0 -0
-121 -114 -117 -141 -125 -0 -0 -0 -3 -65 -6 -0 -153 -0 -0 -132 -124 -122 -110 -89 -78 -63 -55 -49 -42 -39 -45 -63 -39 -40 -55 -81 -0 -0 -4 -25 -26 -23 -14 -0 -19 -0 -0
-96 -138 -100 -73 -60 -69 -26 -0 -0 -0 -0 -0 -214 -181 -132 -101 -98 -106 -130 -117 -84 -71 -65 -74 -79 -61 -67 -84 -35 -36 -31 -72 -61 -0 -0 -0 -0 -0 -0 -0 -0 -42 -0
-57 -69 -55 -49 -49 -19 -0 -0 -87 -75 -72 -52 -52 -89 -87 -85 -47 -85 -126 -104 -73 -69 -83 -104 -108 -107 -97 -116 -117 -48 -52 -110 -0 -0 -0 -0 -0 -0 -0 -0 -0 -0 -0
-66 -51 -49 -92 -29 -48 -39 -76 -25 -10 -7 -17 -34 -39 -36 -29 -58 -148 -196 -203 -159 -99 -90 -117 -147 -159 -142 -170 -70 -149 -228 -57 -0 -0 -0 -0 -0 -0 -0 -0 -0 -0 -0
-116 -93 -100 -61 -56 -136 -46 -50 -65 -13 -98 -29 -13 -22 -22 -48 -120 -184 -249 -32 -0 -0 -22 -218 -220 -225 -218 -0 -0 -0 -0 -239 -0 -0 -0 -0 -0 -0 -0 -0 -0 -0 -0
-109 -122 -24 -0 -45 -28 -0 -0 -0 -14 -22 -0 -0 -0 -0 -16 -45 -51 -221 -0 -0 -0 -0 -0 -0 -0 -0 -50 -0 -0 -0 -0 -0 -0 -0 -0 -0 -0 -0 -0 -0 -0 -0
-120 -0 -0 -0 -0 -0 -0 -0 -0 -0 -0 -0 -0 -0 -0 -0 -0 -0 -0 -0 -0 -0 -0 -0 -0 -0 -0 -0 -0 -0 -0 -0 -0 -0 -0 -0 -0 -0 -0 -0 -0 -0 -0
-0 -0 -0 -0 -0 -0 -0 -0 -0 -0 -0 -0 -0 -0 -0 -0 -0 -0 -0 -0 -0 -0 -0 -0 -0 -0 -0 -0 -0 -0 -0 -0 -0 -0 -0 -0 -0 -0 -0 -0 -0 -0 -0
-0 -0 -0 -0 -0 -0 -0 -0 -0 -0 -0 -0 -0 -0 -0 -0 -0 -0 -0 -0 -0 -0 -0 -0 -0 -0 -0 -0 -0 -0 -0 -0 -0 -0 -0 -0 -0 -0 -0 -0 -0 -0 -0
-0 -0 -0 -0 -0 -6 -14 -12 -0 -0 -0 -0 -0 -0 -0 -0 -0 -0 -0 -0 -0 -0 -0 -0 -0 -0 -0 -0 -0 -0 -0 -0 -0 -0 -0 -0 -0 -0 -0 -0 -0 -0 -0
-0 -0 -0 -3 -0 -9 -0 -0 -0 -0 -0 -0 -0 -0 -0 -0 -0 -0 -0 -0 -0 -0 -0 -0 -0 -0 -0 -0 -0 -0 -0 -0 -0 -0 -0 -0 -0 -0 -0 -0 -0 -0 -0
-0 -0 -7 -2 -5 -0 -0 -0 -0 -0 -0 -0 -0 -0 -0 -0 -0 -0 -0 -0 -0 -0 -0 -0 -0 -0 -0 -0 -0 -0 -0 -0 -0 -0 -0 -0 -0 -0 -0 -0 -0 -0 -0
-0 -0 -0 -0 -26 -17 -0 -0 -0 -0 -0 -0 -0 -0 -0 -0 -0 -0 -0 -0 -0 -0 -0 -0 -0 -0 -0 -0 -0 -0 -0 -0 -0 -0 -0 -0 -0 -0 -0 -0 -0 -0 -0
-0 -0 -0 -0 -0 -0 -0 -0 -0 -0 -0 -0 -0 -0 -0 -0 -0 -0 -0 -0 -0 -0 -0 -0 -0 -0 -0 -0 -0 -0 -0 -0 -0 -0 -0 -0 -0 -0 -0 -0 -0 -0 -0
-0 -0 -0 -0 -0 -9 -0 -0 -0 -0 -0 -0 -0 -0 -0 -0 -0 -0 -0 -0 -0 -0 -0 -0 -0 -0 -0 -0 -0 -0 -0 -0 -0 -0 -0 -0 -0 -0 -0 -0 -0 -0 -0
-0 -0 -0 -0 -28 -3 -0 -0 -0 -0 -0 -0 -0 -0 -0 -0 -0 -0 -0 -0 -0 -0 -0 -0 -0 -0 -0 -0 -0 -0 -0 -0 -0 -0 -0 -0 -0 -0 -0 -0 -0 -0 -0
-0 -1 -0 -0 -15 -0 -0 -0 -0 -0 -0 -0 -0 -0 -0 -0 -0 -0 -0 -0 -0 -0 -0 -0 -0 -0 -0 -0 -0 -0 -0 -0 -0 -0 -0 -0 -0 -0 -0 -0 -0 -0 -0
-0 -3 -0 -0 -12 -0 -0 -0 -0 -0 -0 -0 -0 -0 -0 -0 -0 -0 -0 -0 -0 -0 -0 -0 -0 -0 -0 -0 -0 -0 -0 -0 -0 -0 -0 -0 -0 -0 -0 -0 -0 -0 -0
Wind_Speed
12 5 13 12 6 7 20 27 25 26 28 28 27 26 29 27 25 24 23 24 26 27 24 25 25 22 18 16 18 16 17 16 18 19 18 18 18 16 15 15 15 15 14
6 8 5 4 7 9 9 20 25 24 28 31 30 29 28 30 30 31 28 25 28 28 26 22 25 24 21 20 18 13 17 19 18 21 20 19 19 18 15 14 15 14 13
9 16 7 9 12 12 12 14 23 29 29 31 31 31 29 30 31 29 26 28 25 19 20 23 28 23 23 18 16 14 18 20 21 19 20 19 18 16 16 16 14 14 13
7 1 7 8 22 23 21 23 23 23 32 33 30 31 33 30 28 28 26 26 22 20 22 16 19 22 31 24 21 16 15 18 20 22 21 21 19 18 16 13 15 15 13
11 5 7 2 22 22 24 25 25 28 31 31 31 34 33 30 29 24 19 20 20 18 22 24 22 21 16 8 9 10 8 8 13 17 22 21 19 16 13 13 13 12 13
12 13 7 9 19 20 26 29 26 28 29 32 31 29 31 33 29 28 21 19 21 24 27 30 31 36 20 18 13 11 4 5 5 9 14 16 17 17 15 12 12 12 14
6 5 6 5 3 13 22 22 24 32 31 31 29 29 29 27 25 28 29 26 25 25 28 36 36 28 22 26 8 11 8 7 7 11 15 16 18 14 14 13 10 11 13
10 8 12 17 27 24 25 27 31 33 34 34 33 28 28 30 30 29 27 24 26 27 26 35 35 30 22 23 20 14 14 12 12 16 18 21 21 21 13 13 11 12 15
14 18 21 23 25 24 23 23 25 32 34 37 35 35 36 33 30 31 28 26 24 24 30 30 28 30 28 21 20 18 17 16 20 21 20 20 19 17 14 13 11 10 15
11 15 18 22 25 27 26 27 28 26 29 30 33 28 27 32 32 29 27 27 31 33 33 32 27 27 30 24 20 20 19 19 20 20 19 19 20 18 14 14 12 11 14
9 15 19 21 25 27 28 28 29 27 27 29 30 24 24 31 32 29 27 30 31 34 34 33 31 27 23 22 18 20 20 23 21 20 20 21 21 20 18 18 17 14 14
11 15 19 22 24 26 27 28 28 27 27 28 29 26 24 28 25 26 27 30 32 34 36 35 35 34 32 26 21 21 20 21 17 17 16 15 19 19 20 18 16 15 16
12 13 20 23 25 26 27 25 25 25 26 26 26 27 26 24 24 28 28 32 34 37 35 36 42 40 35 31 26 20 17 17 17 16 19 16 15 14 14 14 12 10 12
11 14 20 25 28 28 28 27 25 24 24 23 25 28 28 29 30 28 31 33 34 34 36 35 35 35 30 29 28 21 19 19 18 17 18 13 7 10 11 10 9 7 8
14 18 25 28 30 29 27 27 26 23 23 26 27 28 30 30 26 26 28 30 31 31 31 29 31 32 32 28 25 21 21 19 18 15 13 6 6 6 2 5 6 6 6
15 19 24 27 27 26 26 24 22 23 25 24 26 28 29 27 29 29 29 27 28 27 27 30 31 28 27 26 23 20 17 17 13 6 4 4 1 5 2 4 6 6 7
17 17 21 24 25 25 25 24 28 27 25 25 26 28 25 27 24 23 24 22 22 20 25 24 22 20 19 17 15 15 10 8 7 11 6 5 5 11 7 4 6 7 7
18 19 20 23 24 25 25 24 25 27 28 28 25 28 26 24 19 15 14 16 18 18 19 18 18 16 15 13 10 10 7 5 6 9 14 13 10 8 6 4 4 5 5
20 21 21 21 23 21 20 21 23 24 25 26 25 22 20 16 13 13 15 16 16 17 16 15 14 12 11 9 8 7 8 8 9 10 11 11 6 5 6 7 4 4 7
19 18 20 22 21 21 20 20 21 23 22 20 18 17 16 15 14 14 14 13 13 13 12 11 10 9 8 8 9 9 10 8 8 9 8 8 6 8 9 8 11 14 12
18 17 17 19 18 18 19 20 20 18 16 16 15 16 15 14 13 12 12 11 10 10 9 9 9 9 10 11 10 10 10 10 9 10 6 5 6 7 7 12 13 10 9
23 15 14 16 17 17 17 17 16 15 14 12 13 13 12 11 12 12 12 13 13 12 11 11 10 10 10 10 10 9 9 7 6 6 6 8 11 12 12 10 9 9 8
27 20 16 14 14 15 15 15 13 11 9 9 10 10 10 10 11 12 13 13 12 12 10 10 10 10 10 10 10 9 9 8 9 11 13 12 12 11 10 9 8 8 8
25 21 15 12 13 12 12 11 8 6 5 6 8 9 8 9 9 11 11 12 12 11 11 11 11 11 9 8 7 8 9 12 12 12 12 11 10 9 9 9 9 8 9
25 20 13 9 10 7 6 5 4 3 3 4 6 7 7 7 8 10 11 10 10 9 10 11 11 9 7 9 10 10 11 12 11 11 10 11 11 10 9 8 8 8 8
24 21 14 11 7 3 3 2 2 1 2 2 3 4 6 6 7 8 9 8 8 8 9 10 11 9 9 7 5 5 8 11 10 10 9 9 9 10 10 9 8 8 7
Wind_Direction
170 183 177 177 178 167 275 262 266 264 256 254 261 267 262 269 276 281 283 282 279 272 289 285 281 297 316 323 318 326 328 336 326 321 320 321 327 341 341 342 350 356 2
268 282 270 272 288 295 291 282 274 275 265 255 257 264 269 263 261 260 275 284 274 273 278 294 283 291 303 308 314 330 323 317 324 316 316 316 317 326 341 344 349 354 2
285 283 283 291 291 291 290 291 282 269 269 263 263 263 270 268 266 273 282 277 285 297 297 293 276 297 302 311 314 318 313 306 308 317 317 323 326 330 334 337 345 352 358
139 141 282 261 279 282 286 284 284 284 266 263 269 269 265 272 277 280 282 284 290 293 292 306 307 302 260 294 302 314 318 315 307 305 313 320 324 327 332 340 338 341 352
166 150 347 129 281 285 286 287 284 280 273 271 270 267 269 276 279 288 293 291 291 294 293 291 298 303 203 312 321 324 328 329 323 316 308 317 325 328 332 336 338 343 344
176 188 177 316 297 298 287 288 284 278 278 272 273 276 274 273 279 283 291 292 290 289 289 284 282 261 302 208 207 210 270 290 301 320 324 323 324 324 327 330 333 335 332
148 161 178 187 261 310 299 304 291 274 277 276 276 278 279 281 284 284 281 285 287 288 287 270 265 286 297 293 264 302 288 243 279 305 314 317 319 322 321 320 321 325 328
341 346 329 316 291 300 298 295 282 274 274 271 272 279 281 280 280 283 283 285 286 286 288 276 275 286 294 295 300 299 299 299 292 299 304 310 312 314 315 314 315 323 329
336 319 309 301 297 303 305 306 304 269 273 269 272 273 274 280 282 281 281 282 286 289 285 285 286 287 290 291 293 292 292 293 298 297 301 307 311 314 314 314 312 311 317
3 338 322 310 301 296 302 299 296 297 291 286 279 281 283 281 280 282 282 285 283 282 283 285 286 288 288 290 288 287 286 288 289 295 300 304 306 307 304 303 302 298 312
20 344 327 319 308 300 296 297 295 300 300 291 286 289 291 278 278 282 286 285 286 285 285 286 288 289 288 286 275 282 281 289 288 290 295 297 299 301 301 300 300 299 302
1 340 327 320 314 310 307 301 298 301 302 299 295 296 297 277 283 286 289 286 287 286 285 287 287 290 291 290 284 284 286 289 285 282 279 282 291 292 297 301 306 313 313
354 347 323 316 313 312 313 314 311 308 305 304 304 299 297 294 293 289 291 291 290 286 292 291 281 288 293 294 294 285 272 278 275 276 286 276 295 299 293 305 316 332 346
351 341 328 314 307 309 307 307 310 310 311 311 308 298 299 297 294 298 296 290 287 292 293 294 293 293 295 295 294 285 277 277 274 281 292 293 299 297 301 313 322 347 3
348 335 320 312 309 309 309 306 307 314 314 308 305 303 298 297 301 301 297 293 294 297 299 303 301 298 296 297 295 289 287 284 282 286 292 261 325 342 318 13 318 20 20
354 340 328 320 317 314 312 309 313 312 312 315 313 308 303 303 298 298 298 301 301 303 304 302 301 303 304 304 303 299 298 297 290 264 251 261 97 55 343 62 44 46 41
352 348 336 329 324 318 316 313 301 303 310 313 315 312 314 305 306 304 305 310 310 310 306 308 311 314 317 321 322 321 310 342 20 34 70 73 52 92 88 330 44 65 44
351 348 343 332 328 321 319 316 307 304 303 308 317 313 311 311 314 315 319 321 318 318 316 315 316 320 325 331 336 346 0 23 34 65 96 92 87 82 46 24 53 49 26
345 341 338 338 330 332 331 324 317 313 311 313 316 321 326 332 336 330 323 320 321 322 323 326 327 330 336 348 2 27 59 64 65 75 82 83 67 38 52 64 64 52 59
350 348 339 334 334 332 331 328 323 319 319 321 326 332 339 341 337 335 336 335 334 335 337 341 349 2 21 43 54 62 66 66 66 68 57 50 49 55 63 73 91 98 85
351 348 343 335 335 335 331 326 328 329 327 329 332 333 338 344 347 355 2 2 1 5 19 33 41 48 55 63 61 67 66 68 69 75 60 27 29 53 59 88 91 70 55
340 349 344 334 331 329 328 330 332 333 333 337 337 341 354 6 16 26 36 43 50 52 50 57 55 60 62 60 59 59 55 53 50 63 42 48 74 80 84 81 75 57 54
329 336 338 336 330 324 321 325 328 335 339 344 347 356 9 21 35 40 50 50 54 55 50 54 58 57 52 54 55 53 59 57 69 82 82 80 72 68 70 68 65 49 39
331 332 329 332 329 322 317 321 325 336 345 346 348 357 23 32 35 43 50 55 53 50 55 62 63 64 54 33 23 33 49 70 72 76 76 72 55 54 57 51 45 39 30
332 333 332 328 327 323 322 321 317 320 321 338 357 23 31 35 46 63 66 51 38 44 59 68 65 58 46 58 64 58 67 73 63 63 57 61 60 52 38 35 34 28 23
334 332 334 330 328 328 316 300 217 255 266 303 358 28 42 28 35 46 60 35 48 52 66 72 75 68 65 49 20 20 46 68 67 64 50 35 22 25 22 24 30 25 27